パンスターズ彗星

C/2019 A9 ( PanSTARRS )

English version
Home page
Updated on November 10, 2019

---------------------------------------------------------------------

・ プロフィール

発見日 2019年1月14日
発見光度 20.3等
発見者 Pan-STARRS 1 telescope (Haleakala)

・ 写真集

・ 軌道要素

Epoch 2019 July 16.0 TT = JDT 2458680.5
T 2019 July 26.52559 TT                                 Williams
q   1.4263971            (2000.0)            P               Q
z  +0.0257938      Peri.  237.80141     -0.16009763     +0.07117697
 +/-0.0000000      Node   278.36851     +0.80750023     -0.56420319
e   0.9632078      Incl.   84.34153     -0.56772540     -0.82256222
From 174 observations 2018 Dec. 18-2019 Oct. 3, mean residual 0".4.

・ 星図

・ 光度変化

        m1 = 6.0 + 5 logΔ + 28.0 log r

---------------------------------------------------------------------

軌道要素はM.P.E.C. 2019-V116に掲載されたものです。
星図はステラナビゲータ Ver.10 (アストロアーツ) で作成したものです。
光度グラフはComet for Windowsで作成したものです。

---------------------------------------------------------------------

Copyright(C) Seiichi Yoshida (comet@aerith.net). All rights reserved.